Time,TemperatureF,DewpointF,PressureIn,WindDirection,WindDirectionDegrees,WindSpeedMPH,WindSpeedGustMPH,Humidity,HourlyPrecipIn,Conditions,Clouds,dailyrainin,SoftwareType,DateUTC
2016-02-07 00:00:00,23.5,13.4,30.09,SSW,195,4.0,5.4,65,0.00,,---,0.00,VWS V15.00,2016-02-07 05:00:00,
2016-02-07 00:05:00,23.6,13.6,30.09,SSW,195,3.6,4.9,65,0.00,,---,0.00,VWS V15.00,2016-02-07 05:05:00,
2016-02-07 00:15:00,24.4,14.3,30.09,SSW,195,3.6,4.0,65,0.00,,---,0.00,VWS V15.00,2016-02-07 05:15:00,
2016-02-07 00:20:00,24.5,14.5,30.06,SSW,195,4.9,5.4,65,0.00,,---,0.00,VWS V15.00,2016-02-07 05:20:00,
2016-02-07 00:25:00,24.4,14.3,30.06,SSW,195,4.9,5.4,65,0.00,,---,0.00,VWS V15.00,2016-02-07 05:25:00,
2016-02-07 00:30:00,23.8,13.8,30.06,SSW,195,5.8,6.7,65,0.00,,---,0.00,VWS V15.00,2016-02-07 05:30:00,
2016-02-07 00:40:00,23.5,13.4,30.06,SSW,195,5.4,6.3,65,0.00,,---,0.00,VWS V15.00,2016-02-07 05:40:00,
2016-02-07 00:45:00,23.5,13.4,30.06,SSW,200,4.9,6.3,65,0.00,,---,0.00,VWS V15.00,2016-02-07 05:45:00,
2016-02-07 00:50:00,24.2,14.1,30.06,SSW,211,5.4,8.1,65,0.00,,---,0.00,VWS V15.00,2016-02-07 05:50:00,
2016-02-07 00:55:00,25.2,14.1,30.06,SSW,211,8.9,9.8,62,0.00,,---,0.00,VWS V15.00,2016-02-07 05:55:00,
2016-02-07 01:05:00,26.1,14.9,30.06,SW,215,4.0,8.5,62,0.00,,---,0.00,VWS V15.00,2016-02-07 06:05:00,
2016-02-07 01:15:00,26.0,14.8,30.06,SW,229,8.9,8.9,62,0.00,,---,0.00,VWS V15.00,2016-02-07 06:15:00,
2016-02-07 01:25:00,26.1,14.9,30.06,SW,221,7.2,8.1,62,0.00,,---,0.00,VWS V15.00,2016-02-07 06:25:00,
2016-02-07 01:30:00,26.0,14.8,30.06,SW,218,7.2,8.9,62,0.00,,---,0.00,VWS V15.00,2016-02-07 06:30:00,
2016-02-07 01:35:00,25.6,14.4,30.06,SW,218,7.2,10.3,62,0.00,,---,0.00,VWS V15.00,2016-02-07 06:35:00,
2016-02-07 01:40:00,25.4,14.2,30.06,SW,218,7.6,8.9,62,0.00,,---,0.00,VWS V15.00,2016-02-07 06:40:00,
2016-02-07 01:50:00,25.4,14.2,30.06,SW,216,6.7,8.9,62,0.00,,---,0.00,VWS V15.00,2016-02-07 06:50:00,
2016-02-07 01:55:00,24.9,13.7,30.06,SSW,209,7.2,10.3,62,0.00,,---,0.00,VWS V15.00,2016-02-07 06:55:00,
2016-02-07 02:05:00,24.5,13.4,30.06,SW,214,9.4,13.9,62,0.00,,---,0.00,VWS V15.00,2016-02-07 07:05:00,
2016-02-07 02:15:00,24.2,13.1,30.06,SSW,205,9.8,11.6,62,0.00,,---,0.00,VWS V15.00,2016-02-07 07:15:00,
2016-02-07 02:20:00,23.8,12.7,30.06,SSW,211,9.4,11.6,62,0.00,,---,0.00,VWS V15.00,2016-02-07 07:20:00,
2016-02-07 02:25:00,23.8,12.7,30.06,SW,216,8.5,11.6,62,0.00,,---,0.00,VWS V15.00,2016-02-07 07:25:00,
2016-02-07 02:35:00,23.5,12.4,30.06,SW,214,8.9,11.6,62,0.00,,---,0.00,VWS V15.00,2016-02-07 07:35:00,
2016-02-07 02:40:00,23.3,12.6,30.06,SSW,207,10.7,11.2,63,0.00,,---,0.00,VWS V15.00,2016-02-07 07:40:00,
2016-02-07 02:45:00,23.3,12.6,30.06,SSW,207,10.7,11.6,63,0.00,,---,0.00,VWS V15.00,2016-02-07 07:45:00,
2016-02-07 02:50:00,22.9,12.2,30.06,SSW,212,9.4,10.7,63,0.00,,---,0.00,VWS V15.00,2016-02-07 07:50:00,
2016-02-07 03:00:00,22.4,11.7,30.06,SSW,207,8.5,12.1,63,0.00,,---,0.00,VWS V15.00,2016-02-07 08:00:00,
2016-02-07 03:05:00,22.4,11.7,30.06,SSW,207,9.4,11.6,63,0.00,,---,0.00,VWS V15.00,2016-02-07 08:05:00,
2016-02-07 03:10:00,22.2,11.5,30.06,SSW,207,8.9,10.7,63,0.00,,---,0.00,VWS V15.00,2016-02-07 08:10:00,
2016-02-07 03:15:00,22.4,11.7,30.06,SSW,209,8.9,12.1,63,0.00,,---,0.00,VWS V15.00,2016-02-07 08:15:00,
2016-02-07 03:25:00,22.2,11.5,30.06,SSW,212,8.9,11.2,63,0.00,,---,0.00,VWS V15.00,2016-02-07 08:25:00,
2016-02-07 03:35:00,22.2,11.5,30.06,SSW,211,8.9,8.9,63,0.00,,---,0.00,VWS V15.00,2016-02-07 08:35:00,
2016-02-07 03:40:00,22.5,11.9,30.06,SSW,212,6.7,8.9,63,0.00,,---,0.00,VWS V15.00,2016-02-07 08:40:00,
2016-02-07 03:50:00,22.9,12.2,30.06,SSW,212,4.5,6.7,63,0.00,,---,0.00,VWS V15.00,2016-02-07 08:50:00,
2016-02-07 03:55:00,22.9,12.2,30.06,SSW,212,4.9,6.3,63,0.00,,---,0.00,VWS V15.00,2016-02-07 08:55:00,
2016-02-07 04:00:00,22.9,12.2,30.06,SW,214,3.1,5.4,63,0.00,,---,0.00,VWS V15.00,2016-02-07 09:00:00,
2016-02-07 04:05:00,21.3,10.7,30.06,SSW,212,2.2,3.6,63,0.00,,---,0.00,VWS V15.00,2016-02-07 09:05:00,
2016-02-07 04:10:00,20.0,9.5,30.06,SSW,212,0.9,2.7,63,0.00,,---,0.00,VWS V15.00,2016-02-07 09:10:00,
2016-02-07 04:15:00,19.7,9.1,30.06,SSW,212,1.3,2.2,63,0.00,,---,0.00,VWS V15.00,2016-02-07 09:15:00,
2016-02-07 04:25:00,19.7,9.1,30.06,SSW,212,0.9,2.7,63,0.00,,---,0.00,VWS V15.00,2016-02-07 09:25:00,
2016-02-07 04:35:00,19.5,9.0,30.06,SSW,212,2.7,4.0,63,0.00,,---,0.00,VWS V15.00,2016-02-07 09:35:00,
2016-02-07 04:40:00,19.0,8.4,30.06,SSW,212,2.2,3.6,63,0.00,,---,0.00,VWS V15.00,2016-02-07 09:40:00,
2016-02-07 04:45:00,18.6,8.1,30.06,SW,214,2.2,3.1,63,0.00,,---,0.00,VWS V15.00,2016-02-07 09:45:00,
2016-02-07 04:50:00,18.4,7.9,30.06,SSW,212,3.1,3.6,63,0.00,,---,0.00,VWS V15.00,2016-02-07 09:50:00,
2016-02-07 05:00:00,18.2,7.8,30.06,SSW,212,2.2,2.7,63,0.00,,---,0.00,VWS V15.00,2016-02-07 10:00:00,
2016-02-07 05:05:00,17.3,6.9,30.06,SSW,212,0.0,2.2,63,0.00,,---,0.00,VWS V15.00,2016-02-07 10:05:00,
2016-02-07 05:15:00,17.0,7.6,30.06,SSW,212,0.0,3.6,66,0.00,,---,0.00,VWS V15.00,2016-02-07 10:15:00,
2016-02-07 05:25:00,16.6,7.2,30.06,SSW,212,1.3,2.2,66,0.00,,---,0.00,VWS V15.00,2016-02-07 10:25:00,
2016-02-07 05:30:00,16.2,6.9,30.06,SW,214,2.2,2.7,66,0.00,,---,0.00,VWS V15.00,2016-02-07 10:30:00,
2016-02-07 05:35:00,16.6,7.2,30.06,SSW,212,1.8,2.7,66,0.00,,---,0.00,VWS V15.00,2016-02-07 10:35:00,
2016-02-07 05:40:00,16.6,7.2,30.06,SSW,212,2.2,2.2,66,0.00,,---,0.00,VWS V15.00,2016-02-07 10:40:00,
2016-02-07 05:45:00,16.4,7.1,30.06,SSW,212,1.8,3.6,66,0.00,,---,0.00,VWS V15.00,2016-02-07 10:45:00,
2016-02-07 05:50:00,15.9,6.6,30.06,SSW,212,0.0,2.7,66,0.00,,---,0.00,VWS V15.00,2016-02-07 10:50:00,
2016-02-07 06:00:00,15.5,6.2,30.06,SSW,212,0.0,0.0,66,0.00,,---,0.00,VWS V15.00,2016-02-07 11:00:00,
2016-02-07 06:05:00,15.2,5.9,30.06,SSW,212,0.0,0.4,66,0.00,,---,0.00,VWS V15.00,2016-02-07 11:05:00,
2016-02-07 06:15:00,15.7,6.4,30.06,SSW,212,3.6,4.5,66,0.00,,---,0.00,VWS V15.00,2016-02-07 11:15:00,
2016-02-07 06:20:00,16.4,7.1,30.06,SSW,212,3.1,4.5,66,0.00,,---,0.00,VWS V15.00,2016-02-07 11:20:00,
2016-02-07 06:25:00,16.8,7.4,30.06,SSW,212,2.2,3.6,66,0.00,,---,0.00,VWS V15.00,2016-02-07 11:25:00,
2016-02-07 06:30:00,16.4,7.1,30.06,SSW,212,1.3,2.7,66,0.00,,---,0.00,VWS V15.00,2016-02-07 11:30:00,
2016-02-07 06:35:00,16.4,7.1,30.06,SSW,212,2.2,3.1,66,0.00,,---,0.00,VWS V15.00,2016-02-07 11:35:00,
2016-02-07 06:40:00,16.4,7.1,30.06,SSW,212,0.0,2.2,66,0.00,,---,0.00,VWS V15.00,2016-02-07 11:40:00,
2016-02-07 06:50:00,15.2,5.9,30.06,SSW,212,0.0,0.9,66,0.00,,---,0.00,VWS V15.00,2016-02-07 11:50:00,
2016-02-07 07:00:00,14.6,5.3,30.06,SSW,212,2.7,2.7,66,0.00,,---,0.00,VWS V15.00,2016-02-07 12:00:00,
2016-02-07 07:05:00,14.4,5.5,30.06,SW,214,1.8,2.7,67,0.00,,---,0.00,VWS V15.00,2016-02-07 12:05:00,
2016-02-07 07:15:00,15.4,7.0,30.06,SSW,212,1.3,2.7,69,0.00,,---,0.00,VWS V15.00,2016-02-07 12:15:00,
2016-02-07 07:25:00,15.7,7.4,30.06,SSW,212,3.1,4.0,69,0.00,,---,0.00,VWS V15.00,2016-02-07 12:25:00,
2016-02-07 07:30:00,16.1,7.7,30.06,SSW,212,2.2,3.6,69,0.00,,---,0.00,VWS V15.00,2016-02-07 12:30:00,
2016-02-07 07:35:00,16.1,7.7,30.06,SSW,212,2.7,3.1,69,0.00,,---,0.00,VWS V15.00,2016-02-07 12:35:00,
2016-02-07 07:40:00,16.4,7.7,30.06,SSW,212,3.6,3.6,68,0.00,,---,0.00,VWS V15.00,2016-02-07 12:40:00,
2016-02-07 07:50:00,16.8,8.1,30.06,SSW,194,5.4,5.4,68,0.00,,---,0.00,VWS V15.00,2016-02-07 12:50:00,
2016-02-07 07:55:00,16.8,8.1,30.06,SSW,195,3.6,5.8,68,0.00,,---,0.00,VWS V15.00,2016-02-07 12:55:00,
2016-02-07 08:05:00,17.5,8.8,30.06,SSW,194,5.4,5.4,68,0.00,,---,0.00,VWS V15.00,2016-02-07 13:05:00,
2016-02-07 08:10:00,17.5,9.7,30.06,SSW,194,4.9,6.3,71,0.00,,---,0.00,VWS V15.00,2016-02-07 13:10:00,
2016-02-07 08:20:00,17.9,10.1,30.06,South,191,0.9,4.0,71,0.00,,---,0.00,VWS V15.00,2016-02-07 13:20:00,
2016-02-07 08:35:00,19.0,10.1,30.06,South,191,4.9,4.9,68,0.00,,---,0.00,VWS V15.00,2016-02-07 13:35:00,
2016-02-07 08:45:00,20.4,11.5,30.06,SSW,192,3.6,5.8,68,0.00,,---,0.00,VWS V15.00,2016-02-07 13:45:00,
2016-02-07 08:50:00,20.6,11.0,30.06,SSW,192,3.6,5.4,66,0.00,,---,0.00,VWS V15.00,2016-02-07 13:50:00,
2016-02-07 08:55:00,20.9,11.4,30.06,SSW,192,1.3,3.6,66,0.00,,---,0.00,VWS V15.00,2016-02-07 13:55:00,
2016-02-07 09:00:00,21.5,11.9,30.06,SSW,192,1.3,4.5,66,0.00,,---,0.00,VWS V15.00,2016-02-07 14:00:00,
2016-02-07 09:10:00,24.4,14.3,30.06,South,180,0.4,4.5,65,0.00,,---,0.00,VWS V15.00,2016-02-07 14:10:00,
2016-02-07 09:20:00,27.2,15.6,30.03,South,181,2.7,3.1,61,0.00,,---,0.00,VWS V15.00,2016-02-07 14:20:00,
2016-02-07 09:25:00,27.6,15.9,30.03,South,174,2.7,5.8,61,0.00,,---,0.00,VWS V15.00,2016-02-07 14:25:00,
2016-02-07 09:30:00,28.5,16.8,30.03,South,171,2.7,4.5,61,0.00,,---,0.00,VWS V15.00,2016-02-07 14:30:00,
2016-02-07 09:35:00,28.5,16.8,30.06,South,169,2.7,5.4,61,0.00,,---,0.00,VWS V15.00,2016-02-07 14:35:00,
2016-02-07 09:40:00,29.8,18.0,30.06,SSE,154,0.9,4.5,61,0.00,,---,0.00,VWS V15.00,2016-02-07 14:40:00,
2016-02-07 09:50:00,30.1,18.3,30.06,South,170,4.0,8.1,61,0.00,,---,0.00,VWS V15.00,2016-02-07 14:50:00,
2016-02-07 10:00:00,30.8,19.0,30.06,SSE,157,5.8,9.4,61,0.00,,---,0.00,VWS V15.00,2016-02-07 15:00:00,
2016-02-07 10:05:00,30.8,19.0,30.06,SSE,167,4.5,8.1,61,0.00,,---,0.00,VWS V15.00,2016-02-07 15:05:00,
2016-02-07 10:15:00,31.9,20.0,30.06,SSW,202,5.8,5.8,61,0.00,,---,0.00,VWS V15.00,2016-02-07 15:15:00,
2016-02-07 10:20:00,32.5,20.1,30.06,SSW,192,6.3,8.9,60,0.00,,---,0.00,VWS V15.00,2016-02-07 15:20:00,
2016-02-07 10:25:00,33.2,20.8,30.06,SSW,194,2.7,6.3,60,0.00,,---,0.00,VWS V15.00,2016-02-07 15:25:00,
2016-02-07 10:30:00,33.9,21.5,30.06,SSE,147,2.2,3.6,60,0.00,,---,0.00,VWS V15.00,2016-02-07 15:30:00,
2016-02-07 10:40:00,32.8,20.5,30.03,SSE,153,4.0,4.9,60,0.00,,---,0.00,VWS V15.00,2016-02-07 15:40:00,
2016-02-07 10:50:00,34.8,22.3,30.03,SSW,200,5.8,7.6,60,0.00,,---,0.00,VWS V15.00,2016-02-07 15:50:00,
2016-02-07 10:55:00,34.2,21.8,30.03,SE,132,2.2,8.5,60,0.00,,---,0.00,VWS V15.00,2016-02-07 15:55:00,
2016-02-07 11:05:00,35.2,22.7,30.03,SSE,167,4.9,7.6,60,0.00,,---,0.00,VWS V15.00,2016-02-07 16:05:00,
2016-02-07 11:15:00,35.0,22.5,30.03,South,183,3.6,8.9,60,0.00,,---,0.00,VWS V15.00,2016-02-07 16:15:00,
2016-02-07 11:20:00,34.4,22.0,30.03,SSW,194,4.5,7.2,60,0.00,,---,0.00,VWS V15.00,2016-02-07 16:20:00,
2016-02-07 11:30:00,35.7,23.2,30.03,SSW,212,6.7,11.2,60,0.00,,---,0.00,VWS V15.00,2016-02-07 16:30:00,
2016-02-07 11:40:00,35.9,23.4,30.03,SSW,200,11.6,14.8,60,0.00,,---,0.00,VWS V15.00,2016-02-07 16:40:00,
2016-02-07 11:50:00,35.9,23.4,30.03,SW,230,10.7,17.9,60,0.00,,---,0.00,VWS V15.00,2016-02-07 16:50:00,
2016-02-07 11:55:00,35.0,22.5,30.03,WSW,243,9.8,13.9,60,0.00,,---,0.00,VWS V15.00,2016-02-07 16:55:00,
2016-02-07 12:05:00,35.2,22.7,30.03,SW,226,7.6,13.9,60,0.00,,---,0.00,VWS V15.00,2016-02-07 17:05:00,
2016-02-07 12:15:00,37.3,24.3,30.03,South,191,12.5,14.8,59,0.00,,---,0.00,VWS V15.00,2016-02-07 17:15:00,
2016-02-07 12:20:00,37.0,24.0,30.00,WSW,240,5.4,17.9,59,0.00,,---,0.00,VWS V15.00,2016-02-07 17:20:00,
2016-02-07 12:30:00,37.5,24.5,30.00,SSW,200,8.9,13.0,59,0.00,,---,0.00,VWS V15.00,2016-02-07 17:30:00,
2016-02-07 12:50:00,38.4,25.3,30.00,SW,222,10.3,16.1,59,0.00,,---,0.00,VWS V15.00,2016-02-07 17:50:00,
2016-02-07 12:55:00,38.9,25.8,30.00,SSW,209,9.4,10.7,59,0.00,,---,0.00,VWS V15.00,2016-02-07 17:55:00,
2016-02-07 13:05:00,38.6,25.5,29.97,SSE,159,5.8,13.0,59,0.00,,---,0.00,VWS V15.00,2016-02-07 18:05:00,
2016-02-07 13:15:00,38.4,25.3,29.97,SSE,167,5.8,13.0,59,0.00,,---,0.00,VWS V15.00,2016-02-07 18:15:00,
2016-02-07 13:25:00,38.2,25.2,29.97,ESE,119,7.2,12.5,59,0.00,,---,0.00,VWS V15.00,2016-02-07 18:25:00,
2016-02-07 13:30:00,38.6,25.5,29.97,ESE,116,8.5,16.1,59,0.00,,---,0.00,VWS V15.00,2016-02-07 18:30:00,
2016-02-07 13:35:00,38.2,25.2,29.97,ESE,109,8.9,17.0,59,0.00,,---,0.00,VWS V15.00,2016-02-07 18:35:00,
2016-02-07 13:40:00,38.2,25.2,29.97,SE,136,5.8,16.6,59,0.00,,---,0.00,VWS V15.00,2016-02-07 18:40:00,
2016-02-07 13:50:00,39.8,26.7,29.94,SE,130,8.5,10.7,59,0.00,,---,0.00,VWS V15.00,2016-02-07 18:50:00,
2016-02-07 13:55:00,39.7,26.5,29.94,South,180,6.7,9.8,59,0.00,,---,0.00,VWS V15.00,2016-02-07 18:55:00,
2016-02-07 14:00:00,39.8,26.7,29.94,South,180,1.3,6.7,59,0.00,,---,0.00,VWS V15.00,2016-02-07 19:00:00,
2016-02-07 14:15:00,39.5,26.4,29.94,SSE,157,3.1,8.5,59,0.00,,---,0.00,VWS V15.00,2016-02-07 19:15:00,
2016-02-07 14:20:00,39.8,26.7,29.94,SSW,204,8.9,10.7,59,0.00,,---,0.00,VWS V15.00,2016-02-07 19:20:00,
2016-02-07 14:25:00,40.2,27.0,29.94,SE,142,3.1,9.4,59,0.00,,---,0.00,VWS V15.00,2016-02-07 19:25:00,
2016-02-07 14:35:00,40.4,27.2,29.94,SSE,164,6.3,8.9,59,0.00,,---,0.00,VWS V15.00,2016-02-07 19:35:00,
2016-02-07 14:45:00,39.8,26.7,29.94,SE,132,6.7,11.6,59,0.00,,---,0.00,VWS V15.00,2016-02-07 19:45:00,
2016-02-07 14:55:00,39.5,26.4,29.94,SSE,164,3.6,10.7,59,0.00,,---,0.00,VWS V15.00,2016-02-07 19:55:00,
2016-02-07 15:00:00,39.8,26.7,29.94,SSE,163,0.9,4.5,59,0.00,,---,0.00,VWS V15.00,2016-02-07 20:00:00,
2016-02-07 15:05:00,40.5,27.4,29.94,SSE,149,6.3,8.9,59,0.00,,---,0.00,VWS V15.00,2016-02-07 20:05:00,
2016-02-07 15:10:00,39.5,26.4,29.94,SSE,167,5.8,8.9,59,0.00,,---,0.00,VWS V15.00,2016-02-07 20:10:00,
2016-02-07 15:15:00,38.9,25.8,29.94,South,178,6.7,10.3,59,0.00,,---,0.00,VWS V15.00,2016-02-07 20:15:00,
2016-02-07 15:20:00,38.9,25.8,29.94,SSW,200,10.7,12.5,59,0.00,,---,0.00,VWS V15.00,2016-02-07 20:20:00,
2016-02-07 15:30:00,38.4,25.3,29.94,SSW,202,6.3,10.7,59,0.00,,---,0.00,VWS V15.00,2016-02-07 20:30:00,
2016-02-07 15:40:00,39.8,26.7,29.94,SW,215,4.5,8.5,59,0.00,,---,0.00,VWS V15.00,2016-02-07 20:40:00,
2016-02-07 15:45:00,39.3,26.2,29.94,SW,215,7.6,9.8,59,0.00,,---,0.00,VWS V15.00,2016-02-07 20:45:00,
2016-02-07 15:50:00,38.2,25.2,29.91,SW,218,3.6,8.9,59,0.00,,---,0.00,VWS V15.00,2016-02-07 20:50:00,
2016-02-07 16:00:00,37.1,24.1,29.91,SW,215,1.3,7.2,59,0.00,,---,0.00,VWS V15.00,2016-02-07 21:00:00,
2016-02-07 16:10:00,37.1,24.1,29.91,SW,216,1.8,5.4,59,0.00,,---,0.00,VWS V15.00,2016-02-07 21:10:00,
2016-02-07 16:20:00,36.4,23.5,29.91,SW,216,0.0,1.8,59,0.00,,---,0.00,VWS V15.00,2016-02-07 21:20:00,
2016-02-07 16:30:00,35.0,22.5,29.91,SW,216,0.0,0.0,60,0.00,,---,0.00,VWS V15.00,2016-02-07 21:30:00,
2016-02-07 16:40:00,32.1,20.2,29.91,SW,216,0.0,0.0,61,0.00,,---,0.00,VWS V15.00,2016-02-07 21:40:00,
2016-02-07 16:45:00,31.2,19.3,29.91,SW,216,0.0,0.0,61,0.00,,---,0.00,VWS V15.00,2016-02-07 21:45:00,
2016-02-07 16:50:00,30.5,18.6,29.91,SW,216,0.9,1.8,61,0.00,,---,0.00,VWS V15.00,2016-02-07 21:50:00,
2016-02-07 16:55:00,30.3,18.5,29.91,SW,216,0.9,1.8,61,0.00,,---,0.00,VWS V15.00,2016-02-07 21:55:00,
2016-02-07 17:00:00,29.8,18.0,29.91,SW,216,0.0,1.3,61,0.00,,---,0.00,VWS V15.00,2016-02-07 22:00:00,
2016-02-07 17:05:00,29.2,17.5,29.91,SW,216,0.9,2.2,61,0.00,,---,0.00,VWS V15.00,2016-02-07 22:05:00,
2016-02-07 17:10:00,29.0,17.3,29.91,SW,216,1.8,2.2,61,0.00,,---,0.00,VWS V15.00,2016-02-07 22:10:00,
2016-02-07 17:15:00,28.7,16.9,29.91,SW,216,1.3,3.1,61,0.00,,---,0.00,VWS V15.00,2016-02-07 22:15:00,
2016-02-07 17:25:00,28.1,16.4,29.91,SW,216,1.8,2.2,61,0.00,,---,0.00,VWS V15.00,2016-02-07 22:25:00,
2016-02-07 17:35:00,28.1,16.4,29.94,SW,216,1.8,2.7,61,0.00,,---,0.00,VWS V15.00,2016-02-07 22:35:00,
2016-02-07 17:45:00,26.9,15.6,29.94,SW,216,0.9,1.8,62,0.00,,---,0.00,VWS V15.00,2016-02-07 22:45:00,
2016-02-07 18:05:00,24.7,13.6,29.94,SW,216,1.3,2.2,62,0.00,,---,0.00,VWS V15.00,2016-02-07 23:05:00,
2016-02-07 18:15:00,24.4,13.2,29.94,SW,216,0.9,1.3,62,0.00,,---,0.00,VWS V15.00,2016-02-07 23:15:00,
2016-02-07 18:25:00,24.5,13.4,29.91,SW,216,0.0,0.0,62,0.00,,---,0.00,VWS V15.00,2016-02-07 23:25:00,
2016-02-07 18:35:00,23.5,12.4,29.91,SW,216,0.0,0.0,62,0.00,,---,0.00,VWS V15.00,2016-02-07 23:35:00,
2016-02-07 18:45:00,23.1,12.4,29.91,SW,216,0.0,1.8,63,0.00,,---,0.00,VWS V15.00,2016-02-07 23:45:00,
2016-02-07 18:50:00,23.6,12.5,29.91,SW,216,1.8,2.7,62,0.00,,---,0.00,VWS V15.00,2016-02-07 23:50:00,
2016-02-07 18:55:00,23.6,12.5,29.91,SW,216,1.8,2.7,62,0.00,,---,0.00,VWS V15.00,2016-02-07 23:55:00,